Wetterdaten: Dienstag, 07.01.2014
Datum Zeit Temperatur Luftfeuchte Luftdruck Regen Wind Richtung Richtung Taupunkt Windchill Windben
07.01.2014 00:00 2,9 C 81 % 1015,4 hPa 0,0 l/m 0,6 km/h (0 Bft) N 360 -0,0 C 4,3 C 0,0 km/h (0 Bft)
07.01.2014 00:05 2,9 C 82 % 1015,4 hPa 0,0 l/m 1,3 km/h (1 Bft) NO 45 0,1 C 3,8 C 3,9 km/h (1 Bft)
07.01.2014 00:10 2,9 C 83 % 1015,4 hPa 0,0 l/m 1,3 km/h (1 Bft) S 180 0,3 C 3,6 C 0,0 km/h (0 Bft)
07.01.2014 00:15 2,6 C 83 % 1015,4 hPa 0,0 l/m 0,6 km/h (0 Bft) S 180 0,0 C 3,4 C 0,0 km/h (0 Bft)
07.01.2014 00:20 2,3 C 83 % 1015,4 hPa 0,0 l/m 0,0 km/h (0 Bft) S 180 -0,3 C 3,0 C 0,0 km/h (0 Bft)
07.01.2014 00:25 3,1 C 84 % 1015,8 hPa 0,0 l/m 0,6 km/h (0 Bft) S 180 0,7 C 2,8 C 5,0 km/h (1 Bft)
07.01.2014 00:30 4,7 C 84 % 1015,8 hPa 0,0 l/m 2,1 km/h (1 Bft) O-SO 112 2,2 C 3,4 C 9,5 km/h (2 Bft)
07.01.2014 00:35 5,3 C 83 % 1015,8 hPa 0,0 l/m 5,5 km/h (1 Bft) O-SO 112 2,7 C 3,1 C 13,0 km/h (3 Bft)
07.01.2014 00:40 5,1 C 80 % 1015,8 hPa 0,0 l/m 8,9 km/h (2 Bft) O-NO 67 1,9 C 1,6 C 7,1 km/h (2 Bft)
07.01.2014 00:45 5,0 C 79 % 1015,8 hPa 0,0 l/m 7,7 km/h (2 Bft) O-NO 67 1,7 C 2,8 C 7,9 km/h (2 Bft)
07.01.2014 00:50 5,1 C 79 % 1015,8 hPa 0,0 l/m 6,0 km/h (2 Bft) O 90 1,8 C 4,6 C 3,9 km/h (1 Bft)
07.01.2014 00:55 4,9 C 79 % 1015,8 hPa 0,0 l/m 5,8 km/h (2 Bft) O 90 1,6 C 4,2 C 6,8 km/h (2 Bft)
07.01.2014 01:00 4,8 C 79 % 1015,8 hPa 0,0 l/m 4,5 km/h (1 Bft) S 180 1,5 C 4,7 C 0,0 km/h (0 Bft)
07.01.2014 01:05 4,1 C 79 % 1015,9 hPa 0,0 l/m 2,6 km/h (1 Bft) O-SO 112 0,8 C 5,0 C 0,0 km/h (0 Bft)
07.01.2014 01:10 3,2 C 79 % 1015,9 hPa 0,0 l/m 0,3 km/h (0 Bft) S-SO 157 -0,1 C 4,2 C 0,0 km/h (0 Bft)
07.01.2014 01:15 3,7 C 81 % 1015,9 hPa 0,0 l/m 1,6 km/h (1 Bft) O 90 0,7 C 3,6 C 9,0 km/h (2 Bft)
07.01.2014 01:20 4,0 C 81 % 1015,9 hPa 0,0 l/m 3,2 km/h (1 Bft) SO 135 1,0 C 3,8 C 3,1 km/h (1 Bft)
07.01.2014 01:25 4,4 C 81 % 1016,5 hPa 0,0 l/m 3,7 km/h (1 Bft) SW 225 1,4 C 3,7 C 2,1 km/h (1 Bft)
07.01.2014 01:30 4,3 C 81 % 1016,5 hPa 0,0 l/m 4,5 km/h (1 Bft) O-SO 112 1,3 C 3,2 C 6,4 km/h (2 Bft)
07.01.2014 01:35 5,3 C 78 % 1016,5 hPa 0,0 l/m 5,8 km/h (2 Bft) SO 135 1,8 C 3,2 C 8,4 km/h (2 Bft)
07.01.2014 01:40 6,0 C 69 % 1016,5 hPa 0,0 l/m 6,9 km/h (2 Bft) O 90 0,8 C 3,9 C 6,8 km/h (2 Bft)
07.01.2014 01:45 6,5 C 65 % 1017,1 hPa 0,0 l/m 7,1 km/h (2 Bft) O-SO 112 0,4 C 4,1 C 7,6 km/h (2 Bft)
07.01.2014 01:50 6,4 C 63 % 1017,1 hPa 0,0 l/m 6,0 km/h (2 Bft) SO 135 -0,1 C 5,4 C 3,7 km/h (1 Bft)
07.01.2014 01:55 5,9 C 66 % 1017,1 hPa 0,0 l/m 5,5 km/h (1 Bft) W-SW 247 0,0 C 5,6 C 6,8 km/h (2 Bft)
07.01.2014 02:00 5,7 C 66 % 1017,1 hPa 0,0 l/m 5,6 km/h (1 Bft) SO 135 -0,1 C 5,9 C 8,7 km/h (2 Bft)
07.01.2014 02:05 5,6 C 66 % 1017,3 hPa 0,0 l/m 6,0 km/h (2 Bft) S 180 -0,2 C 5,9 C 8,4 km/h (2 Bft)
07.01.2014 02:10 5,7 C 66 % 1017,3 hPa 0,0 l/m 6,6 km/h (2 Bft) SO 135 -0,1 C 5,8 C 8,2 km/h (2 Bft)
07.01.2014 02:15 6,1 C 64 % 1017,3 hPa 0,0 l/m 6,6 km/h (2 Bft) SO 135 -0,2 C 6,0 C 7,4 km/h (2 Bft)
07.01.2014 02:20 6,7 C 61 % 1017,3 hPa 0,0 l/m 6,1 km/h (2 Bft) S 180 -0,3 C 6,4 C 7,9 km/h (2 Bft)
07.01.2014 02:25 6,9 C 61 % 1017,8 hPa 0,0 l/m 5,5 km/h (1 Bft) SO 135 -0,1 C 6,9 C 6,4 km/h (2 Bft)
07.01.2014 02:30 7,1 C 60 % 1017,8 hPa 0,0 l/m 6,1 km/h (2 Bft) O-SO 112 -0,1 C 6,9 C 13,4 km/h (3 Bft)
07.01.2014 02:35 7,3 C 60 % 1017,8 hPa 0,0 l/m 6,9 km/h (2 Bft) O 90 0,1 C 6,4 C 7,4 km/h (2 Bft)
07.01.2014 02:40 7,5 C 60 % 1017,8 hPa 0,0 l/m 7,2 km/h (2 Bft) O-SO 112 0,2 C 6,1 C 7,6 km/h (2 Bft)
07.01.2014 02:45 7,8 C 59 % 1017,9 hPa 0,0 l/m 6,9 km/h (2 Bft) O-NO 67 0,3 C 6,8 C 8,5 km/h (2 Bft)
07.01.2014 02:50 7,6 C 59 % 1017,9 hPa 0,0 l/m 7,1 km/h (2 Bft) O-SO 112 0,1 C 6,7 C 13,5 km/h (3 Bft)
07.01.2014 02:55 7,8 C 57 % 1017,9 hPa 0,0 l/m 6,4 km/h (2 Bft) S 180 -0,2 C 7,6 C 7,6 km/h (2 Bft)
07.01.2014 03:00 8,0 C 55 % 1017,9 hPa 0,0 l/m 5,3 km/h (1 Bft) S 180 -0,5 C 8,1 C 3,9 km/h (1 Bft)
07.01.2014 03:05 8,0 C 56 % 1018,2 hPa 0,0 l/m 5,1 km/h (1 Bft) SO 135 -0,2 C 8,1 C 6,1 km/h (2 Bft)
07.01.2014 03:10 8,2 C 55 % 1018,2 hPa 0,0 l/m 4,3 km/h (1 Bft) O-SO 112 -0,3 C 8,3 C 7,1 km/h (2 Bft)
07.01.2014 03:15 8,2 C 55 % 1018,2 hPa 0,0 l/m 4,7 km/h (1 Bft) S 180 -0,3 C 8,2 C 4,3 km/h (1 Bft)
07.01.2014 03:20 7,5 C 57 % 1018,2 hPa 0,0 l/m 5,3 km/h (1 Bft) S-SO 157 -0,5 C 8,1 C 3,2 km/h (1 Bft)
07.01.2014 03:25 7,1 C 58 % 1018,5 hPa 0,0 l/m 5,5 km/h (1 Bft) S 180 -0,6 C 8,0 C 7,1 km/h (2 Bft)
07.01.2014 03:30 6,7 C 59 % 1018,5 hPa 0,0 l/m 5,1 km/h (1 Bft) S 180 -0,7 C 8,0 C 6,9 km/h (2 Bft)
07.01.2014 03:35 6,9 C 59 % 1018,5 hPa 0,0 l/m 5,1 km/h (1 Bft) S 180 -0,5 C 8,0 C 7,1 km/h (2 Bft)
07.01.2014 03:40 7,3 C 58 % 1018,5 hPa 0,0 l/m 6,4 km/h (2 Bft) S 180 -0,4 C 7,8 C 10,8 km/h (2 Bft)
07.01.2014 03:45 7,5 C 57 % 1019,0 hPa 0,0 l/m 7,7 km/h (2 Bft) S 180 -0,5 C 6,7 C 8,9 km/h (2 Bft)
07.01.2014 03:50 7,8 C 57 % 1019,0 hPa 0,0 l/m 8,2 km/h (2 Bft) S-SO 157 -0,2 C 6,5 C 16,6 km/h (3 Bft)
07.01.2014 03:55 7,7 C 57 % 1019,0 hPa 0,0 l/m 8,2 km/h (2 Bft) S 180 -0,3 C 6,5 C 11,7 km/h (2 Bft)
07.01.2014 04:00 7,8 C 56 % 1019,0 hPa 0,0 l/m 8,9 km/h (2 Bft) S 180 -0,4 C 6,0 C 24,9 km/h (4 Bft)
07.01.2014 04:05 8,2 C 54 % 1019,1 hPa 0,0 l/m 10,5 km/h (2 Bft) S 180 -0,5 C 4,9 C 11,6 km/h (2 Bft)
07.01.2014 04:10 7,8 C 55 % 1019,1 hPa 0,0 l/m 10,6 km/h (2 Bft) S 180 -0,7 C 4,8 C 15,0 km/h (3 Bft)
07.01.2014 04:15 7,9 C 56 % 1019,1 hPa 0,0 l/m 9,8 km/h (2 Bft) S 180 -0,3 C 5,4 C 7,7 km/h (2 Bft)
07.01.2014 04:20 7,9 C 56 % 1019,1 hPa 0,0 l/m 11,4 km/h (2 Bft) S-SO 157 -0,3 C 4,2 C 16,7 km/h (3 Bft)
07.01.2014 04:25 8,0 C 56 % 1019,2 hPa 0,0 l/m 11,6 km/h (2 Bft) S 180 -0,2 C 4,0 C 7,7 km/h (2 Bft)
07.01.2014 04:30 8,0 C 56 % 1019,2 hPa 0,0 l/m 10,0 km/h (2 Bft) SO 135 -0,2 C 5,1 C 9,5 km/h (2 Bft)
07.01.2014 04:35 8,0 C 56 % 1019,2 hPa 0,0 l/m 8,4 km/h (2 Bft) SW 225 -0,2 C 6,2 C 7,2 km/h (2 Bft)
07.01.2014 04:40 8,0 C 56 % 1019,2 hPa 0,0 l/m 8,4 km/h (2 Bft) SO 135 -0,2 C 6,2 C 12,9 km/h (3 Bft)
07.01.2014 04:45 8,1 C 56 % 1019,2 hPa 0,0 l/m 7,6 km/h (2 Bft) S 180 -0,1 C 6,7 C 5,1 km/h (1 Bft)
07.01.2014 04:50 7,9 C 57 % 1019,2 hPa 0,0 l/m 7,4 km/h (2 Bft) S 180 -0,1 C 6,8 C 10,5 km/h (2 Bft)
07.01.2014 04:55 7,9 C 57 % 1019,2 hPa 0,0 l/m 8,0 km/h (2 Bft) S 180 -0,1 C 6,4 C 17,1 km/h (3 Bft)
07.01.2014 05:00 8,0 C 57 % 1019,2 hPa 0,0 l/m 8,0 km/h (2 Bft) O-SO 112 0,0 C 6,5 C 5,5 km/h (1 Bft)
07.01.2014 05:05 8,1 C 57 % 1019,4 hPa 0,0 l/m 7,2 km/h (2 Bft) S-SO 157 0,1 C 7,4 C 5,3 km/h (1 Bft)
07.01.2014 05:10 8,0 C 57 % 1019,4 hPa 0,0 l/m 6,3 km/h (2 Bft) S 180 0,0 C 8,2 C 4,7 km/h (1 Bft)
07.01.2014 05:15 8,0 C 58 % 1019,4 hPa 0,0 l/m 5,8 km/h (2 Bft) S-SO 157 0,3 C 8,2 C 7,2 km/h (2 Bft)
07.01.2014 05:20 8,2 C 57 % 1019,4 hPa 0,0 l/m 5,6 km/h (1 Bft) S-SO 157 0,2 C 8,3 C 4,5 km/h (1 Bft)
07.01.2014 05:25 7,9 C 58 % 1019,5 hPa 0,0 l/m 5,5 km/h (1 Bft) O-SO 112 0,2 C 8,3 C 7,7 km/h (2 Bft)
07.01.2014 05:30 8,0 C 58 % 1019,5 hPa 0,0 l/m 4,7 km/h (1 Bft) O 90 0,3 C 8,4 C 4,2 km/h (1 Bft)
07.01.2014 05:35 7,8 C 59 % 1019,5 hPa 0,0 l/m 5,0 km/h (1 Bft) S-SO 157 0,3 C 8,3 C 6,1 km/h (2 Bft)
07.01.2014 05:40 7,9 C 59 % 1019,5 hPa 0,0 l/m 5,0 km/h (1 Bft) O 90 0,4 C 8,2 C 6,8 km/h (2 Bft)
07.01.2014 05:45 7,8 C 59 % 1019,6 hPa 0,0 l/m 4,8 km/h (1 Bft) O 90 0,3 C 8,1 C 4,5 km/h (1 Bft)
07.01.2014 05:50 7,2 C 60 % 1019,6 hPa 0,0 l/m 3,7 km/h (1 Bft) SO 135 -0,0 C 8,3 C 4,3 km/h (1 Bft)
07.01.2014 05:55 7,1 C 61 % 1019,6 hPa 0,0 l/m 3,4 km/h (1 Bft) O-SO 112 0,1 C 8,2 C 5,0 km/h (1 Bft)
07.01.2014 06:00 7,1 C 62 % 1019,6 hPa 0,0 l/m 3,2 km/h (1 Bft) O 90 0,3 C 8,1 C 4,3 km/h (1 Bft)
07.01.2014 06:05 7,3 C 61 % 1019,7 hPa 0,0 l/m 3,5 km/h (1 Bft) O-SO 112 0,3 C 8,0 C 5,3 km/h (1 Bft)
07.01.2014 06:10 7,3 C 61 % 1019,7 hPa 0,0 l/m 4,5 km/h (1 Bft) O-SO 112 0,3 C 7,7 C 5,3 km/h (1 Bft)
07.01.2014 06:15 7,2 C 61 % 1019,7 hPa 0,0 l/m 4,8 km/h (1 Bft) NO 45 0,2 C 7,6 C 8,0 km/h (2 Bft)
07.01.2014 06:20 7,1 C 61 % 1019,7 hPa 0,0 l/m 4,7 km/h (1 Bft) O-SO 112 0,1 C 7,4 C 4,3 km/h (1 Bft)
07.01.2014 06:25 7,2 C 62 % 1020,4 hPa 0,0 l/m 5,0 km/h (1 Bft) O-NO 67 0,4 C 7,2 C 5,6 km/h (1 Bft)
07.01.2014 06:30 7,2 C 62 % 1020,4 hPa 0,0 l/m 5,0 km/h (1 Bft) O-NO 67 0,4 C 7,3 C 6,6 km/h (2 Bft)
07.01.2014 06:35 7,1 C 62 % 1020,4 hPa 0,0 l/m 4,0 km/h (1 Bft) N-NO 22 0,3 C 7,6 C 4,7 km/h (1 Bft)
07.01.2014 06:40 6,8 C 64 % 1020,4 hPa 0,0 l/m 2,7 km/h (1 Bft) S-SW 202 0,5 C 7,7 C 1,9 km/h (1 Bft)
07.01.2014 06:45 5,5 C 65 % 1020,6 hPa 0,0 l/m 2,9 km/h (1 Bft) S 180 -0,5 C 7,2 C 3,1 km/h (1 Bft)
07.01.2014 06:50 6,0 C 68 % 1020,6 hPa 0,0 l/m 3,2 km/h (1 Bft) SO 135 0,6 C 6,5 C 4,8 km/h (1 Bft)
07.01.2014 06:55 5,5 C 69 % 1020,6 hPa 0,0 l/m 3,5 km/h (1 Bft) N-NO 22 0,3 C 6,4 C 4,0 km/h (1 Bft)
07.01.2014 07:00 4,9 C 70 % 1020,6 hPa 0,0 l/m 2,4 km/h (1 Bft) NO 45 -0,1 C 6,1 C 4,5 km/h (1 Bft)
07.01.2014 07:05 5,3 C 71 % 1020,9 hPa 0,0 l/m 1,9 km/h (1 Bft) N-NO 22 0,5 C 5,8 C 1,9 km/h (1 Bft)
07.01.2014 07:10 5,5 C 71 % 1020,9 hPa 0,0 l/m 3,1 km/h (1 Bft) O-NO 67 0,7 C 5,7 C 6,1 km/h (2 Bft)
07.01.2014 07:15 5,5 C 71 % 1020,9 hPa 0,0 l/m 3,9 km/h (1 Bft) NO 45 0,7 C 5,6 C 7,2 km/h (2 Bft)
07.01.2014 07:20 5,2 C 72 % 1020,9 hPa 0,0 l/m 3,9 km/h (1 Bft) O-SO 112 0,6 C 5,7 C 2,3 km/h (1 Bft)
07.01.2014 07:25 4,9 C 73 % 1021,0 hPa 0,0 l/m 2,3 km/h (1 Bft) N 360 0,5 C 5,7 C 0,0 km/h (0 Bft)
07.01.2014 07:30 4,4 C 73 % 1021,0 hPa 0,0 l/m 0,6 km/h (0 Bft) N 360 -0,0 C 5,5 C 0,0 km/h (0 Bft)
07.01.2014 07:35 4,6 C 73 % 1021,0 hPa 0,0 l/m 0,0 km/h (0 Bft) N 360 0,2 C 5,4 C 0,0 km/h (0 Bft)
07.01.2014 07:40 4,3 C 74 % 1021,0 hPa 0,0 l/m 0,2 km/h (0 Bft) N 360 0,1 C 5,4 C 0,0 km/h (0 Bft)
07.01.2014 07:45 4,3 C 75 % 1021,2 hPa 0,0 l/m 0,5 km/h (0 Bft) N-NO 22 0,3 C 5,2 C 2,4 km/h (1 Bft)
07.01.2014 07:50 4,2 C 75 % 1021,2 hPa 0,0 l/m 1,0 km/h (0 Bft) W 270 0,2 C 5,1 C 2,6 km/h (1 Bft)
07.01.2014 07:55 4,0 C 75 % 1021,2 hPa 0,0 l/m 1,4 km/h (1 Bft) S-SW 202 -0,0 C 5,1 C 0,0 km/h (0 Bft)
07.01.2014 08:00 4,4 C 76 % 1021,2 hPa 0,0 l/m 1,1 km/h (1 Bft) N-NO 22 0,5 C 4,8 C 0,0 km/h (0 Bft)
07.01.2014 08:05 4,0 C 75 % 1021,0 hPa 0,0 l/m 0,3 km/h (0 Bft) N-NO 22 -0,0 C 4,6 C 0,0 km/h (0 Bft)
07.01.2014 08:10 3,9 C 76 % 1021,0 hPa 0,0 l/m 0,2 km/h (0 Bft) NO 45 0,1 C 4,5 C 0,0 km/h (0 Bft)
07.01.2014 08:15 3,9 C 76 % 1021,0 hPa 0,0 l/m 0,2 km/h (0 Bft) NO 45 0,1 C 4,7 C 0,0 km/h (0 Bft)
07.01.2014 08:20 4,1 C 76 % 1021,0 hPa 0,0 l/m 0,3 km/h (0 Bft) N-NW 337 0,3 C 5,0 C 2,9 km/h (1 Bft)
07.01.2014 08:25 4,3 C 76 % 1021,0 hPa 0,0 l/m 0,6 km/h (0 Bft) W 270 0,5 C 5,3 C 2,9 km/h (1 Bft)
07.01.2014 08:30 4,3 C 76 % 1021,0 hPa 0,0 l/m 0,6 km/h (0 Bft) S-SW 202 0,5 C 5,4 C 0,0 km/h (0 Bft)
07.01.2014 08:35 4,0 C 75 % 1021,0 hPa 0,0 l/m 0,2 km/h (0 Bft) W-SW 247 -0,0 C 5,3 C 0,0 km/h (0 Bft)
07.01.2014 08:40 3,8 C 76 % 1021,0 hPa 0,0 l/m 0,2 km/h (0 Bft) W 270 -0,0 C 5,1 C 0,0 km/h (0 Bft)
07.01.2014 08:45 3,8 C 76 % 1021,2 hPa 0,0 l/m 0,3 km/h (0 Bft) SW 225 -0,0 C 4,9 C 1,6 km/h (1 Bft)
07.01.2014 08:50 3,5 C 76 % 1021,2 hPa 0,0 l/m 0,2 km/h (0 Bft) S-SW 202 -0,3 C 4,5 C 0,0 km/h (0 Bft)
07.01.2014 08:55 3,4 C 76 % 1021,2 hPa 0,0 l/m 0,2 km/h (0 Bft) W-SW 247 -0,4 C 4,3 C 0,0 km/h (0 Bft)
07.01.2014 09:00 3,2 C 76 % 1021,2 hPa 0,0 l/m 0,3 km/h (0 Bft) W 270 -0,6 C 4,1 C 0,0 km/h (0 Bft)
07.01.2014 09:05 3,2 C 76 % 1020,9 hPa 0,0 l/m 0,5 km/h (0 Bft) O 90 -0,6 C 3,9 C 3,9 km/h (1 Bft)
07.01.2014 09:10 3,7 C 77 % 1020,9 hPa 0,0 l/m 0,3 km/h (0 Bft) O 90 0,1 C 3,8 C 0,0 km/h (0 Bft)
07.01.2014 09:15 3,4 C 76 % 1020,9 hPa 0,0 l/m 0,5 km/h (0 Bft) S-SW 202 -0,4 C 3,9 C 0,0 km/h (0 Bft)
07.01.2014 09:20 3,5 C 77 % 1020,9 hPa 0,0 l/m 0,6 km/h (0 Bft) N-NW 337 -0,1 C 3,7 C 0,0 km/h (0 Bft)
07.01.2014 09:25 3,3 C 77 % 1021,2 hPa 0,0 l/m 0,3 km/h (0 Bft) N-NO 22 -0,3 C 3,7 C 0,0 km/h (0 Bft)
07.01.2014 09:30 3,5 C 78 % 1021,2 hPa 0,0 l/m 0,3 km/h (0 Bft) N-NO 22 0,0 C 3,9 C 0,0 km/h (0 Bft)
07.01.2014 09:35 3,6 C 78 % 1021,2 hPa 0,0 l/m 0,3 km/h (0 Bft) N-NW 337 0,1 C 4,1 C 0,0 km/h (0 Bft)
07.01.2014 09:40 3,9 C 78 % 1021,2 hPa 0,0 l/m 0,0 km/h (0 Bft) N-NW 337 0,4 C 4,6 C 0,0 km/h (0 Bft)
07.01.2014 09:45 4,0 C 77 % 1021,2 hPa 0,0 l/m 0,0 km/h (0 Bft) NW 315 0,3 C 4,9 C 0,0 km/h (0 Bft)
07.01.2014 09:50 4,1 C 77 % 1021,2 hPa 0,0 l/m 0,3 km/h (0 Bft) N-NO 22 0,4 C 5,1 C 0,0 km/h (0 Bft)
07.01.2014 09:55 4,4 C 77 % 1021,2 hPa 0,0 l/m 0,6 km/h (0 Bft) N-NO 22 0,7 C 5,2 C 2,6 km/h (1 Bft)
07.01.2014 10:00 4,5 C 77 % 1021,2 hPa 0,0 l/m 0,3 km/h (0 Bft) N-NO 22 0,8 C 5,5 C 0,0 km/h (0 Bft)
07.01.2014 10:05 4,6 C 77 % 1021,4 hPa 0,0 l/m 0,2 km/h (0 Bft) N-NO 22 0,9 C 5,6 C 0,0 km/h (0 Bft)
07.01.2014 10:10 5,1 C 76 % 1021,4 hPa 0,0 l/m 0,2 km/h (0 Bft) N-NO 22 1,2 C 5,9 C 2,3 km/h (1 Bft)
07.01.2014 10:15 5,6 C 76 % 1021,4 hPa 0,0 l/m 0,3 km/h (0 Bft) N-NO 22 1,7 C 6,1 C 0,0 km/h (0 Bft)
07.01.2014 10:20 5,7 C 75 % 1021,4 hPa 0,0 l/m 0,8 km/h (0 Bft) N-NO 22 1,6 C 6,4 C 2,1 km/h (1 Bft)
07.01.2014 10:25 5,5 C 74 % 1021,4 hPa 0,0 l/m 0,6 km/h (0 Bft) N-NO 22 1,2 C 6,5 C 0,0 km/h (0 Bft)
07.01.2014 10:30 5,5 C 74 % 1021,4 hPa 0,0 l/m 0,0 km/h (0 Bft) N-NO 22 1,2 C 6,5 C 0,0 km/h (0 Bft)
07.01.2014 10:35 5,6 C 74 % 1021,4 hPa 0,0 l/m 0,0 km/h (0 Bft) N-NO 22 1,3 C 6,5 C 0,0 km/h (0 Bft)
07.01.2014 10:40 5,5 C 74 % 1021,4 hPa 0,0 l/m 0,2 km/h (0 Bft) N-NO 22 1,2 C 6,5 C 0,0 km/h (0 Bft)
07.01.2014 10:45 5,8 C 74 % 1021,4 hPa 0,0 l/m 0,5 km/h (0 Bft) N-NO 22 1,5 C 6,5 C 2,4 km/h (1 Bft)
07.01.2014 10:50 6,4 C 72 % 1021,4 hPa 0,0 l/m 1,9 km/h (1 Bft) N-NO 22 1,7 C 6,7 C 3,9 km/h (1 Bft)
07.01.2014 10:55 6,6 C 72 % 1021,4 hPa 0,0 l/m 2,9 km/h (1 Bft) N-NO 22 1,9 C 6,9 C 3,1 km/h (1 Bft)
07.01.2014 11:00 6,7 C 71 % 1021,4 hPa 0,0 l/m 2,6 km/h (1 Bft) N-NO 22 1,8 C 7,2 C 1,8 km/h (1 Bft)
07.01.2014 11:05 6,6 C 70 % 1021,3 hPa 0,0 l/m 1,6 km/h (1 Bft) N-NO 22 1,5 C 7,2 C 1,9 km/h (1 Bft)
07.01.2014 11:10 6,5 C 70 % 1021,3 hPa 0,0 l/m 0,5 km/h (0 Bft) N-NO 22 1,4 C 7,2 C 0,0 km/h (0 Bft)
07.01.2014 11:15 6,5 C 70 % 1021,3 hPa 0,0 l/m 0,6 km/h (0 Bft) N-NO 22 1,4 C 7,5 C 2,4 km/h (1 Bft)
07.01.2014 11:20 7,1 C 70 % 1021,3 hPa 0,0 l/m 1,9 km/h (1 Bft) N-NO 22 2,0 C 7,8 C 2,3 km/h (1 Bft)
07.01.2014 11:25 7,4 C 69 % 1021,2 hPa 0,0 l/m 2,6 km/h (1 Bft) NO 45 2,1 C 7,9 C 2,1 km/h (1 Bft)
07.01.2014 11:30 6,8 C 69 % 1021,2 hPa 0,0 l/m 1,8 km/h (1 Bft) N-NO 22 1,5 C 8,0 C 0,0 km/h (0 Bft)
07.01.2014 11:35 6,7 C 69 % 1021,2 hPa 0,0 l/m 0,8 km/h (0 Bft) N-NO 22 1,4 C 8,2 C 0,0 km/h (0 Bft)
07.01.2014 11:40 6,9 C 69 % 1021,2 hPa 0,0 l/m 0,2 km/h (0 Bft) NO 45 1,6 C 8,3 C 2,3 km/h (1 Bft)
07.01.2014 11:45 7,0 C 68 % 1020,9 hPa 0,0 l/m 0,2 km/h (0 Bft) NO 45 1,5 C 8,3 C 0,0 km/h (0 Bft)
07.01.2014 11:50 7,9 C 65 % 1020,9 hPa 0,0 l/m 1,1 km/h (1 Bft) NO 45 1,7 C 8,5 C 3,1 km/h (1 Bft)
07.01.2014 11:55 8,0 C 65 % 1020,9 hPa 0,0 l/m 1,3 km/h (1 Bft) NO 45 1,8 C 8,6 C 0,0 km/h (0 Bft)
07.01.2014 12:00 7,6 C 65 % 1020,9 hPa 0,0 l/m 1,1 km/h (1 Bft) NO 45 1,5 C 8,6 C 1,9 km/h (1 Bft)
07.01.2014 12:05 7,5 C 64 % 1020,8 hPa 0,0 l/m 0,6 km/h (0 Bft) NO 45 1,1 C 8,6 C 0,0 km/h (0 Bft)
07.01.2014 12:10 7,5 C 64 % 1020,8 hPa 0,0 l/m 0,6 km/h (0 Bft) NO 45 1,1 C 8,6 C 0,0 km/h (0 Bft)
07.01.2014 12:15 7,5 C 64 % 1020,8 hPa 0,0 l/m 1,3 km/h (1 Bft) N-NW 337 1,1 C 8,9 C 2,1 km/h (1 Bft)
07.01.2014 12:20 7,7 C 63 % 1020,8 hPa 0,0 l/m 2,4 km/h (1 Bft) N 360 1,1 C 9,3 C 4,2 km/h (1 Bft)
07.01.2014 12:25 7,8 C 64 % 1020,6 hPa 0,0 l/m 2,7 km/h (1 Bft) NO 45 1,4 C 9,5 C 0,0 km/h (0 Bft)
07.01.2014 12:30 7,7 C 63 % 1020,6 hPa 0,0 l/m 1,3 km/h (1 Bft) N-NO 22 1,1 C 9,6 C 0,0 km/h (0 Bft)
07.01.2014 12:35 7,7 C 63 % 1020,6 hPa 0,0 l/m 0,6 km/h (0 Bft) N 360 1,1 C 9,7 C 3,5 km/h (1 Bft)
07.01.2014 12:40 8,5 C 62 % 1020,6 hPa 0,0 l/m 1,0 km/h (0 Bft) NO 45 1,6 C 9,7 C 0,0 km/h (0 Bft)
07.01.2014 12:45 8,6 C 62 % 1020,4 hPa 0,0 l/m 1,0 km/h (0 Bft) NO 45 1,7 C 9,8 C 4,2 km/h (1 Bft)
07.01.2014 12:50 8,8 C 61 % 1020,4 hPa 0,0 l/m 0,8 km/h (0 Bft) N-NO 22 1,7 C 9,9 C 2,6 km/h (1 Bft)
07.01.2014 12:55 8,6 C 61 % 1020,4 hPa 0,0 l/m 1,4 km/h (1 Bft) N 360 1,5 C 10,1 C 2,6 km/h (1 Bft)
07.01.2014 13:00 8,5 C 59 % 1020,4 hPa 0,0 l/m 2,6 km/h (1 Bft) N 360 1,0 C 10,3 C 3,2 km/h (1 Bft)
07.01.2014 13:05 9,2 C 58 % 1020,2 hPa 0,0 l/m 2,7 km/h (1 Bft) NO 45 1,4 C 10,4 C 4,2 km/h (1 Bft)
07.01.2014 13:10 9,3 C 58 % 1020,2 hPa 0,0 l/m 1,9 km/h (1 Bft) N-NO 22 1,5 C 10,5 C 0,0 km/h (0 Bft)
07.01.2014 13:15 9,0 C 58 % 1020,2 hPa 0,0 l/m 0,8 km/h (0 Bft) N-NO 22 1,2 C 10,6 C 0,0 km/h (0 Bft)
07.01.2014 13:20 8,8 C 59 % 1020,2 hPa 0,0 l/m 0,5 km/h (0 Bft) W-NW 292 1,2 C 10,7 C 0,0 km/h (0 Bft)
07.01.2014 13:25 9,1 C 58 % 1020,1 hPa 0,0 l/m 0,8 km/h (0 Bft) N-NW 337 1,3 C 10,7 C 2,4 km/h (1 Bft)
07.01.2014 13:30 9,2 C 58 % 1020,1 hPa 0,0 l/m 1,1 km/h (1 Bft) N-NW 337 1,4 C 10,8 C 1,9 km/h (1 Bft)
07.01.2014 13:35 8,9 C 58 % 1020,1 hPa 0,0 l/m 1,1 km/h (1 Bft) N 360 1,1 C 10,8 C 2,9 km/h (1 Bft)
07.01.2014 13:40 9,5 C 57 % 1020,1 hPa 0,0 l/m 1,4 km/h (1 Bft) N-NO 22 1,4 C 11,0 C 1,9 km/h (1 Bft)
07.01.2014 13:45 9,6 C 57 % 1020,1 hPa 0,0 l/m 1,3 km/h (1 Bft) N 360 1,5 C 11,2 C 2,7 km/h (1 Bft)
07.01.2014 13:50 9,7 C 56 % 1020,1 hPa 0,0 l/m 1,0 km/h (0 Bft) N-NW 337 1,4 C 13,0 C 4,8 km/h (1 Bft)
07.01.2014 13:55 9,8 C 56 % 1020,1 hPa 0,0 l/m 1,8 km/h (1 Bft) N-NO 22 1,4 C 14,6 C 3,1 km/h (1 Bft)
07.01.2014 14:00 9,9 C 56 % 1020,1 hPa 0,0 l/m 2,6 km/h (1 Bft) O-NO 67 1,5 C 15,0 C 2,3 km/h (1 Bft)
07.01.2014 14:05 10,3 C 56 % 1020,6 hPa 0,0 l/m 2,1 km/h (1 Bft) O-NO 67 1,9 C 15,0 C 2,7 km/h (1 Bft)
07.01.2014 14:10 10,6 C 55 % 1020,6 hPa 0,0 l/m 1,0 km/h (0 Bft) N 360 1,9 C 14,7 C 1,6 km/h (1 Bft)
07.01.2014 14:15 10,8 C 54 % 1020,6 hPa 0,0 l/m 0,6 km/h (0 Bft) N-NO 22 1,9 C 15,1 C 0,0 km/h (0 Bft)
07.01.2014 14:20 10,5 C 53 % 1020,6 hPa 0,0 l/m 0,8 km/h (0 Bft) NO 45 1,3 C 14,8 C 2,4 km/h (1 Bft)
07.01.2014 14:25 10,5 C 53 % 1020,8 hPa 0,0 l/m 1,1 km/h (1 Bft) NO 45 1,3 C 14,3 C 2,9 km/h (1 Bft)
07.01.2014 14:30 10,2 C 54 % 1020,8 hPa 0,0 l/m 1,1 km/h (1 Bft) NO 45 1,3 C 13,3 C 2,1 km/h (1 Bft)
07.01.2014 14:35 10,3 C 54 % 1020,8 hPa 0,0 l/m 1,3 km/h (1 Bft) NO 45 1,4 C 12,7 C 3,1 km/h (1 Bft)
07.01.2014 14:40 10,2 C 53 % 1020,8 hPa 0,0 l/m 2,4 km/h (1 Bft) NO 45 1,1 C 12,1 C 2,4 km/h (1 Bft)
07.01.2014 14:45 9,9 C 54 % 1020,8 hPa 0,0 l/m 2,6 km/h (1 Bft) NO 45 1,0 C 12,2 C 2,4 km/h (1 Bft)
07.01.2014 14:50 10,0 C 54 % 1020,8 hPa 0,0 l/m 2,7 km/h (1 Bft) O-NO 67 1,1 C 11,9 C 4,7 km/h (1 Bft)
07.01.2014 14:55 9,9 C 54 % 1020,8 hPa 0,0 l/m 2,9 km/h (1 Bft) O-NO 67 1,0 C 11,8 C 2,9 km/h (1 Bft)
07.01.2014 15:00 9,8 C 55 % 1020,8 hPa 0,0 l/m 3,1 km/h (1 Bft) O-NO 67 1,2 C 11,4 C 4,2 km/h (1 Bft)
07.01.2014 15:05 9,7 C 55 % 1020,8 hPa 0,0 l/m 2,7 km/h (1 Bft) O-NO 67 1,1 C 11,3 C 2,9 km/h (1 Bft)
07.01.2014 15:10 9,7 C 55 % 1020,8 hPa 0,0 l/m 3,2 km/h (1 Bft) O-NO 67 1,1 C 10,8 C 4,5 km/h (1 Bft)
07.01.2014 15:15 9,6 C 56 % 1020,8 hPa 0,0 l/m 3,7 km/h (1 Bft) O-NO 67 1,3 C 10,5 C 3,5 km/h (1 Bft)
07.01.2014 15:20 9,5 C 56 % 1020,8 hPa 0,0 l/m 3,4 km/h (1 Bft) O 90 1,2 C 10,1 C 1,9 km/h (1 Bft)
07.01.2014 15:25 9,4 C 56 % 1020,7 hPa 0,0 l/m 2,4 km/h (1 Bft) O 90 1,1 C 9,9 C 3,7 km/h (1 Bft)
07.01.2014 15:30 9,3 C 57 % 1020,7 hPa 0,0 l/m 3,1 km/h (1 Bft) O-NO 67 1,2 C 9,4 C 3,5 km/h (1 Bft)
07.01.2014 15:35 9,1 C 57 % 1020,7 hPa 0,0 l/m 3,9 km/h (1 Bft) O-NO 67 1,0 C 9,0 C 3,4 km/h (1 Bft)
07.01.2014 15:40 9,0 C 57 % 1020,7 hPa 0,0 l/m 3,9 km/h (1 Bft) O-NO 67 0,9 C 8,6 C 5,8 km/h (2 Bft)
07.01.2014 15:45 8,8 C 58 % 1020,8 hPa 0,0 l/m 4,2 km/h (1 Bft) O 90 1,0 C 8,2 C 5,0 km/h (1 Bft)
07.01.2014 15:50 8,6 C 58 % 1020,8 hPa 0,0 l/m 4,5 km/h (1 Bft) O 90 0,8 C 7,7 C 5,0 km/h (1 Bft)
07.01.2014 15:55 8,6 C 58 % 1020,8 hPa 0,0 l/m 4,3 km/h (1 Bft) O 90 0,8 C 7,7 C 3,9 km/h (1 Bft)
07.01.2014 16:00 7,1 C 59 % 1020,8 hPa 0,0 l/m 2,4 km/h (1 Bft) O 90 -0,4 C 7,5 C 3,2 km/h (1 Bft)
07.01.2014 16:05 7,7 C 60 % 1020,8 hPa 0,0 l/m 2,4 km/h (1 Bft) O 90 0,4 C 7,2 C 6,0 km/h (2 Bft)
07.01.2014 16:10 8,1 C 59 % 1020,8 hPa 0,0 l/m 5,1 km/h (1 Bft) O-NO 67 0,6 C 6,4 C 7,6 km/h (2 Bft)
07.01.2014 16:15 7,7 C 60 % 1020,8 hPa 0,0 l/m 6,1 km/h (2 Bft) NO 45 0,4 C 6,2 C 6,4 km/h (2 Bft)
07.01.2014 16:20 7,4 C 61 % 1020,8 hPa 0,0 l/m 5,5 km/h (1 Bft) O-NO 67 0,4 C 5,9 C 7,1 km/h (2 Bft)
07.01.2014 16:25 7,2 C 62 % 1020,9 hPa 0,0 l/m 5,3 km/h (1 Bft) O 90 0,4 C 5,8 C 4,8 km/h (1 Bft)
07.01.2014 16:30 6,6 C 63 % 1020,9 hPa 0,0 l/m 3,9 km/h (1 Bft) O-SO 112 0,1 C 6,0 C 0,0 km/h (0 Bft)
07.01.2014 16:35 6,2 C 66 % 1020,9 hPa 0,0 l/m 2,7 km/h (1 Bft) O 90 0,3 C 5,8 C 7,6 km/h (2 Bft)
07.01.2014 16:40 6,4 C 67 % 1020,9 hPa 0,0 l/m 4,5 km/h (1 Bft) O 90 0,7 C 5,2 C 6,9 km/h (2 Bft)
07.01.2014 16:45 5,8 C 68 % 1021,1 hPa 0,0 l/m 6,8 km/h (2 Bft) O-NO 67 0,4 C 4,3 C 7,2 km/h (2 Bft)
07.01.2014 16:50 6,0 C 69 % 1021,1 hPa 0,0 l/m 6,4 km/h (2 Bft) O 90 0,8 C 4,7 C 7,1 km/h (2 Bft)
07.01.2014 16:55 6,0 C 69 % 1021,1 hPa 0,0 l/m 5,8 km/h (2 Bft) O-NO 67 0,8 C 4,9 C 7,1 km/h (2 Bft)
07.01.2014 17:00 5,9 C 69 % 1021,1 hPa 0,0 l/m 6,1 km/h (2 Bft) O-NO 67 0,7 C 4,5 C 6,8 km/h (2 Bft)
07.01.2014 17:05 5,8 C 70 % 1020,9 hPa 0,0 l/m 6,3 km/h (2 Bft) NO 45 0,8 C 4,4 C 6,3 km/h (2 Bft)
07.01.2014 17:10 5,7 C 70 % 1020,9 hPa 0,0 l/m 5,3 km/h (1 Bft) NO 45 0,7 C 4,4 C 6,3 km/h (2 Bft)
07.01.2014 17:15 5,4 C 71 % 1020,9 hPa 0,0 l/m 4,7 km/h (1 Bft) O-NO 67 0,6 C 4,4 C 3,1 km/h (1 Bft)
07.01.2014 17:20 4,4 C 71 % 1020,9 hPa 0,0 l/m 1,9 km/h (1 Bft) O 90 -0,4 C 4,6 C 0,0 km/h (0 Bft)
07.01.2014 17:25 4,3 C 72 % 1021,1 hPa 0,0 l/m 0,3 km/h (0 Bft) O 90 -0,3 C 4,2 C 0,0 km/h (0 Bft)
07.01.2014 17:30 3,4 C 72 % 1021,1 hPa 0,0 l/m 0,0 km/h (0 Bft) NO 45 -1,2 C 3,9 C 0,0 km/h (0 Bft)
07.01.2014 17:35 3,1 C 73 % 1021,1 hPa 0,0 l/m 0,0 km/h (0 Bft) NO 45 -1,3 C 3,5 C 0,0 km/h (0 Bft)
07.01.2014 17:40 3,1 C 74 % 1021,1 hPa 0,0 l/m 0,0 km/h (0 Bft) NO 45 -1,1 C 3,2 C 0,0 km/h (0 Bft)
07.01.2014 17:45 2,9 C 75 % 1020,9 hPa 0,0 l/m 0,0 km/h (0 Bft) N-NO 22 -1,1 C 3,2 C 0,0 km/h (0 Bft)
07.01.2014 17:50 2,9 C 76 % 1020,9 hPa 0,0 l/m 0,0 km/h (0 Bft) N-NO 22 -0,9 C 3,4 C 0,0 km/h (0 Bft)
07.01.2014 17:55 2,9 C 76 % 1020,9 hPa 0,0 l/m 0,0 km/h (0 Bft) N-NO 22 -0,9 C 3,5 C 0,0 km/h (0 Bft)
07.01.2014 18:00 3,1 C 76 % 1020,9 hPa 0,0 l/m 0,0 km/h (0 Bft) NO 45 -0,7 C 3,5 C 0,0 km/h (0 Bft)
07.01.2014 18:05 3,2 C 77 % 1021,1 hPa 0,0 l/m 0,0 km/h (0 Bft) N-NO 22 -0,4 C 3,6 C 0,0 km/h (0 Bft)
07.01.2014 18:10 3,2 C 77 % 1021,1 hPa 0,0 l/m 0,0 km/h (0 Bft) N 360 -0,4 C 3,8 C 0,0 km/h (0 Bft)
07.01.2014 18:13 3,2 C 77 % 1021,1 hPa 0,0 l/m 0,0 km/h (0 Bft) N 360 -0,4 C 3,9 C 0,0 km/h (0 Bft)
07.01.2014 18:15 3,2 C 77 % 1021,1 hPa 0,0 l/m 0,0 km/h (0 Bft) N 360 -0,4 C 3,9 C 0,0 km/h (0 Bft)
07.01.2014 18:20 3,3 C 77 % 1021,1 hPa 0,0 l/m 0,0 km/h (0 Bft) N-NO 22 -0,3 C 3,8 C 0,0 km/h (0 Bft)
07.01.2014 18:25 3,1 C 77 % 1020,9 hPa 0,0 l/m 0,0 km/h (0 Bft) N-NO 22 -0,5 C 3,8 C 0,0 km/h (0 Bft)
07.01.2014 18:30 3,0 C 77 % 1020,9 hPa 0,0 l/m 0,2 km/h (0 Bft) O 90 -0,6 C 3,6 C 0,0 km/h (0 Bft)
07.01.2014 18:35 3,0 C 78 % 1020,9 hPa 0,0 l/m 0,2 km/h (0 Bft) O 90 -0,5 C 3,4 C 0,0 km/h (0 Bft)
07.01.2014 18:40 2,8 C 78 % 1020,9 hPa 0,0 l/m 0,2 km/h (0 Bft) O-NO 67 -0,6 C 3,2 C 0,0 km/h (0 Bft)
07.01.2014 18:45 2,7 C 78 % 1021,2 hPa 0,0 l/m 0,3 km/h (0 Bft) O-NO 67 -0,7 C 3,3 C 3,5 km/h (1 Bft)
07.01.2014 18:50 2,6 C 79 % 1021,2 hPa 0,0 l/m 0,3 km/h (0 Bft) W 270 -0,7 C 3,4 C 0,0 km/h (0 Bft)
07.01.2014 18:55 2,7 C 79 % 1021,2 hPa 0,0 l/m 0,5 km/h (0 Bft) S 180 -0,6 C 3,5 C 2,3 km/h (1 Bft)
07.01.2014 19:00 2,9 C 79 % 1021,2 hPa 0,0 l/m 0,2 km/h (0 Bft) O-SO 112 -0,4 C 3,6 C 0,0 km/h (0 Bft)
07.01.2014 19:05 2,9 C 79 % 1021,3 hPa 0,0 l/m 0,2 km/h (0 Bft) W-SW 247 -0,4 C 3,7 C 0,0 km/h (0 Bft)
07.01.2014 19:10 3,0 C 79 % 1021,3 hPa 0,0 l/m 0,0 km/h (0 Bft) W-SW 247 -0,3 C 3,8 C 0,0 km/h (0 Bft)
07.01.2014 19:15 2,9 C 80 % 1021,3 hPa 0,0 l/m 0,0 km/h (0 Bft) W-SW 247 -0,2 C 3,8 C 0,0 km/h (0 Bft)
07.01.2014 19:20 3,1 C 79 % 1021,3 hPa 0,0 l/m 0,0 km/h (0 Bft) W-SW 247 -0,2 C 3,9 C 0,0 km/h (0 Bft)
07.01.2014 19:25 3,2 C 79 % 1021,1 hPa 0,0 l/m 0,5 km/h (0 Bft) S-SW 202 -0,1 C 4,2 C 1,8 km/h (1 Bft)
07.01.2014 19:30 3,6 C 79 % 1021,1 hPa 0,0 l/m 1,1 km/h (1 Bft) S 180 0,3 C 4,9 C 2,4 km/h (1 Bft)
07.01.2014 19:35 4,0 C 79 % 1021,1 hPa 0,0 l/m 1,0 km/h (0 Bft) N-NW 337 0,7 C 5,2 C 0,0 km/h (0 Bft)
07.01.2014 19:40 4,2 C 79 % 1021,1 hPa 0,0 l/m 0,2 km/h (0 Bft) N-NW 337 0,9 C 5,4 C 0,0 km/h (0 Bft)
07.01.2014 19:45 4,2 C 79 % 1021,1 hPa 0,0 l/m 0,0 km/h (0 Bft) N 360 0,9 C 5,5 C 0,0 km/h (0 Bft)
07.01.2014 19:50 4,3 C 79 % 1021,1 hPa 0,0 l/m 0,3 km/h (0 Bft) N-NO 22 1,0 C 5,7 C 1,8 km/h (1 Bft)
07.01.2014 19:55 4,6 C 79 % 1021,1 hPa 0,0 l/m 0,5 km/h (0 Bft) W-NW 292 1,3 C 6,0 C 0,0 km/h (0 Bft)
07.01.2014 20:00 4,8 C 78 % 1021,1 hPa 0,0 l/m 0,3 km/h (0 Bft) S-SW 202 1,3 C 6,1 C 2,9 km/h (1 Bft)
07.01.2014 20:05 4,7 C 78 % 1021,0 hPa 0,0 l/m 0,6 km/h (0 Bft) N-NO 22 1,2 C 6,2 C 0,0 km/h (0 Bft)
07.01.2014 20:10 5,1 C 77 % 1021,0 hPa 0,0 l/m 1,0 km/h (0 Bft) W-NW 292 1,4 C 6,3 C 4,7 km/h (1 Bft)
07.01.2014 20:15 5,2 C 77 % 1021,0 hPa 0,0 l/m 0,6 km/h (0 Bft) W-NW 292 1,5 C 6,4 C 0,0 km/h (0 Bft)
07.01.2014 20:20 5,0 C 77 % 1021,0 hPa 0,0 l/m 0,6 km/h (0 Bft) W-NW 292 1,3 C 6,5 C 2,4 km/h (1 Bft)
07.01.2014 20:25 5,0 C 76 % 1020,9 hPa 0,0 l/m 0,5 km/h (0 Bft) W-SW 247 1,1 C 6,4 C 3,7 km/h (1 Bft)
07.01.2014 20:30 5,1 C 76 % 1020,9 hPa 0,0 l/m 1,3 km/h (1 Bft) W-NW 292 1,2 C 6,6 C 0,0 km/h (0 Bft)
07.01.2014 20:35 5,2 C 76 % 1020,9 hPa 0,0 l/m 1,4 km/h (1 Bft) W-NW 292 1,3 C 6,7 C 4,3 km/h (1 Bft)
07.01.2014 20:40 5,3 C 76 % 1020,9 hPa 0,0 l/m 1,0 km/h (0 Bft) W-NW 292 1,4 C 6,8 C 2,6 km/h (1 Bft)
07.01.2014 20:45 5,4 C 76 % 1021,0 hPa 0,0 l/m 0,6 km/h (0 Bft) N-NW 337 1,5 C 6,9 C 0,0 km/h (0 Bft)
07.01.2014 20:50 5,3 C 75 % 1021,0 hPa 0,0 l/m 0,5 km/h (0 Bft) W-NW 292 1,2 C 6,9 C 0,0 km/h (0 Bft)
07.01.2014 20:55 5,7 C 76 % 1021,0 hPa 0,0 l/m 0,5 km/h (0 Bft) N 360 1,8 C 6,9 C 0,0 km/h (0 Bft)
07.01.2014 21:00 5,5 C 75 % 1021,0 hPa 0,0 l/m 1,0 km/h (0 Bft) W 270 1,4 C 7,0 C 3,9 km/h (1 Bft)
07.01.2014 21:05 5,7 C 75 % 1020,6 hPa 0,0 l/m 1,6 km/h (1 Bft) NO 45 1,6 C 7,2 C 2,4 km/h (1 Bft)
07.01.2014 21:10 5,7 C 75 % 1020,6 hPa 0,0 l/m 1,4 km/h (1 Bft) NO 45 1,6 C 7,1 C 0,0 km/h (0 Bft)
07.01.2014 21:15 5,7 C 75 % 1020,6 hPa 0,0 l/m 1,1 km/h (1 Bft) N-NW 337 1,6 C 7,0 C 2,3 km/h (1 Bft)
07.01.2014 21:20 5,4 C 74 % 1020,6 hPa 0,0 l/m 1,4 km/h (1 Bft) S-SW 202 1,1 C 6,8 C 3,7 km/h (1 Bft)
07.01.2014 21:25 5,4 C 75 % 1020,6 hPa 0,0 l/m 1,4 km/h (1 Bft) W-NW 292 1,3 C 6,8 C 3,1 km/h (1 Bft)
07.01.2014 21:30 5,4 C 75 % 1020,6 hPa 0,0 l/m 1,9 km/h (1 Bft) W-NW 292 1,3 C 6,7 C 3,2 km/h (1 Bft)
07.01.2014 21:35 5,3 C 75 % 1020,6 hPa 0,0 l/m 2,3 km/h (1 Bft) NO 45 1,2 C 6,6 C 4,2 km/h (1 Bft)
07.01.2014 21:40 5,2 C 75 % 1020,6 hPa 0,0 l/m 1,3 km/h (1 Bft) W-NW 292 1,1 C 6,6 C 0,0 km/h (0 Bft)
07.01.2014 21:45 5,2 C 75 % 1020,8 hPa 0,0 l/m 0,8 km/h (0 Bft) W 270 1,1 C 6,4 C 0,0 km/h (0 Bft)
07.01.2014 21:50 5,2 C 75 % 1020,8 hPa 0,0 l/m 1,1 km/h (1 Bft) O-NO 67 1,1 C 6,3 C 0,0 km/h (0 Bft)
07.01.2014 21:55 5,3 C 75 % 1020,8 hPa 0,0 l/m 1,4 km/h (1 Bft) S-SW 202 1,2 C 6,3 C 2,3 km/h (1 Bft)
07.01.2014 22:00 4,8 C 75 % 1020,8 hPa 0,0 l/m 1,0 km/h (0 Bft) W 270 0,8 C 6,2 C 2,9 km/h (1 Bft)
07.01.2014 22:05 4,7 C 76 % 1020,7 hPa 0,0 l/m 1,0 km/h (0 Bft) W 270 0,8 C 6,1 C 2,7 km/h (1 Bft)
07.01.2014 22:10 4,8 C 76 % 1020,7 hPa 0,0 l/m 1,1 km/h (1 Bft) N-NO 22 0,9 C 6,0 C 3,1 km/h (1 Bft)
07.01.2014 22:15 4,8 C 76 % 1020,7 hPa 0,0 l/m 1,1 km/h (1 Bft) W-NW 292 0,9 C 6,1 C 0,0 km/h (0 Bft)
07.01.2014 22:20 4,9 C 76 % 1020,7 hPa 0,0 l/m 1,0 km/h (0 Bft) SW 225 1,0 C 6,0 C 0,0 km/h (0 Bft)
07.01.2014 22:25 4,8 C 76 % 1020,6 hPa 0,0 l/m 1,0 km/h (0 Bft) W-NW 292 0,9 C 6,0 C 0,0 km/h (0 Bft)
07.01.2014 22:30 4,5 C 76 % 1020,6 hPa 0,0 l/m 0,3 km/h (0 Bft) W-NW 292 0,6 C 5,7 C 0,0 km/h (0 Bft)
07.01.2014 22:35 4,6 C 76 % 1020,6 hPa 0,0 l/m 0,2 km/h (0 Bft) W 270 0,7 C 5,6 C 2,1 km/h (1 Bft)
07.01.2014 22:40 5,1 C 75 % 1020,6 hPa 0,0 l/m 1,3 km/h (1 Bft) W 270 1,0 C 5,8 C 0,0 km/h (0 Bft)
07.01.2014 22:45 5,1 C 75 % 1020,8 hPa 0,0 l/m 1,3 km/h (1 Bft) NO 45 1,0 C 5,7 C 6,4 km/h (2 Bft)
07.01.2014 22:50 4,8 C 75 % 1020,8 hPa 0,0 l/m 0,8 km/h (0 Bft) W-NW 292 0,8 C 5,6 C 0,0 km/h (0 Bft)
07.01.2014 22:55 4,8 C 75 % 1020,8 hPa 0,0 l/m 1,4 km/h (1 Bft) N 360 0,8 C 5,6 C 3,4 km/h (1 Bft)
07.01.2014 23:00 4,6 C 75 % 1020,8 hPa 0,0 l/m 1,1 km/h (1 Bft) N-NO 22 0,6 C 5,4 C 1,9 km/h (1 Bft)
07.01.2014 23:05 4,9 C 75 % 1020,6 hPa 0,0 l/m 1,0 km/h (0 Bft) W-NW 292 0,8 C 5,4 C 0,0 km/h (0 Bft)
07.01.2014 23:10 4,4 C 75 % 1020,6 hPa 0,0 l/m 0,8 km/h (0 Bft) N 360 0,4 C 5,2 C 1,8 km/h (1 Bft)
07.01.2014 23:15 4,3 C 75 % 1020,6 hPa 0,0 l/m 0,3 km/h (0 Bft) NW 315 0,3 C 5,1 C 0,0 km/h (0 Bft)
07.01.2014 23:20 3,9 C 75 % 1020,6 hPa 0,0 l/m 0,3 km/h (0 Bft) O-NO 67 -0,1 C 4,7 C 0,0 km/h (0 Bft)
07.01.2014 23:25 4,1 C 75 % 1020,6 hPa 0,0 l/m 1,1 km/h (1 Bft) S-SO 157 0,1 C 4,7 C 4,2 km/h (1 Bft)
07.01.2014 23:30 3,9 C 76 % 1020,6 hPa 0,0 l/m 1,1 km/h (1 Bft) S-SO 157 0,1 C 5,0 C 0,0 km/h (0 Bft)
07.01.2014 23:35 4,2 C 76 % 1020,6 hPa 0,0 l/m 0,8 km/h (0 Bft) O-NO 67 0,4 C 5,0 C 1,9 km/h (1 Bft)
07.01.2014 23:40 4,2 C 76 % 1020,6 hPa 0,0 l/m 0,5 km/h (0 Bft) N-NO 22 0,4 C 5,1 C 0,0 km/h (0 Bft)
07.01.2014 23:45 4,1 C 76 % 1020,8 hPa 0,0 l/m 1,6 km/h (1 Bft) S 180 0,3 C 5,2 C 4,8 km/h (1 Bft)
07.01.2014 23:50 3,8 C 76 % 1020,8 hPa 0,0 l/m 2,1 km/h (1 Bft) N-NO 22 -0,0 C 4,7 C 2,3 km/h (1 Bft)
07.01.2014 23:55 3,5 C 76 % 1020,8 hPa 0,0 l/m 1,3 km/h (1 Bft) W 270 -0,3 C 4,2 C 2,4 km/h (1 Bft)
_ Min-Zeit 00:20 14:40 00:20 - 19:45 - - 17:35 00:40 23:40
Minimum _ 2,3 C 53 % 1015,4 hPa - 0,0 km/h (0 Bft) - - -1,3 C 1,6 C 0,0 km/h (0 Bft)
_ Max-Zeit 14:15 00:30 11:00 23:55 04:25 - - 00:35 14:15 04:00
Maximum _ 10,8 C 84 % 1021,4 hPa 0,0 l/m 11,6 km/h
S (2 Bft)
- - 2,7 C 15,1 C 24,9 km/h
S (4 Bft)
Durchschnitt _ 6,0 C 69 % 1020,1 hPa #0,0 l/m 2,6 km/h (1 Bft) S - 0,6 C 6,6 C 3,4 km/h (1 Bft)